 Year, Month, Day, Hour, DOY,  2.50- 3.20, dJ1,  3.20- 4.00, dJ2,  4.00- 4.90, dJ3,  4.90- 6.00, dJ4,  6.00- 7.90, dJ5,  7.90- 9.70, dJ6,  9.70-13.60, dJ7
 2014,  1,  1,  0,   1.021,  0.1510E-04,  0.1510E-04,  0.2640E-04,  0.1860E-04,   0.000    ,  0.1170E-04,   0.000    ,  0.9590E-05,   0.000    ,  0.5550E-05,   0.000    ,  0.5860E-05,   0.000    ,  0.2710E-05
 2014,  1,  1,  1,   1.062,  0.1510E-04,  0.1510E-04,   0.000    ,  0.1320E-04,   0.000    ,  0.1170E-04,   0.000    ,  0.9590E-05,   0.000    ,  0.5550E-05,   0.000    ,  0.5860E-05,   0.000    ,  0.2710E-05
 2014,  1,  1,  3,   1.146,  0.1470E-04,  0.1470E-04,   0.000    ,  0.1290E-04,   0.000    ,  0.1150E-04,   0.000    ,  0.9380E-05,   0.000    ,  0.5430E-05,   0.000    ,  0.5730E-05,   0.000    ,  0.2650E-05
 2014,  1,  1,  4,   1.188,  0.1480E-04,  0.1480E-04,   0.000    ,  0.1290E-04,   0.000    ,  0.1150E-04,   0.000    ,  0.9390E-05,   0.000    ,  0.5440E-05,   0.000    ,  0.5740E-05,   0.000    ,  0.2650E-05
 2014,  1,  1,  6,   1.271,  0.1530E-04,  0.1530E-04,   0.000    ,  0.1340E-04,   0.000    ,  0.1190E-04,  0.9760E-05,  0.9760E-05,   0.000    ,  0.5650E-05,   0.000    ,  0.5960E-05,   0.000    ,  0.2750E-05
 2014,  1,  1,  9,   1.396,  0.1420E-04,  0.1420E-04,  0.1240E-04,  0.1240E-04,  0.1100E-04,  0.1100E-04,   0.000    ,  0.9010E-05,   0.000    ,  0.5220E-05,   0.000    ,  0.5510E-05,   0.000    ,  0.2540E-05
 2014,  1,  1, 10,   1.438,   0.000    ,  0.1740E-04,  0.1520E-04,  0.1520E-04,   0.000    ,  0.1350E-04,   0.000    ,  0.1110E-04,   0.000    ,  0.6400E-05,   0.000    ,  0.6760E-05,   0.000    ,  0.3120E-05
 2014,  1,  1, 12,   1.521,  0.1540E-04,  0.1540E-04,   0.000    ,  0.1350E-04,   0.000    ,  0.1200E-04,   0.000    ,  0.9820E-05,   0.000    ,  0.5690E-05,   0.000    ,  0.6000E-05,   0.000    ,  0.2770E-05
 2014,  1,  1, 13,   1.562,  0.1550E-04,  0.1550E-04,   0.000    ,  0.1360E-04,   0.000    ,  0.1210E-04,   0.000    ,  0.9880E-05,   0.000    ,  0.5720E-05,   0.000    ,  0.6040E-05,   0.000    ,  0.2790E-05
 2014,  1,  1, 14,   1.604,  0.2990E-04,  0.2110E-04,  0.2620E-04,  0.1850E-04,  0.1160E-04,  0.1160E-04,   0.000    ,  0.9520E-05,   0.000    ,  0.5510E-05,   0.000    ,  0.5810E-05,   0.000    ,  0.2680E-05
 2014,  1,  1, 15,   1.646,   0.000    ,  0.1350E-04,  0.1180E-04,  0.1180E-04,  0.1050E-04,  0.1050E-04,   0.000    ,  0.8600E-05,   0.000    ,  0.4980E-05,   0.000    ,  0.5250E-05,   0.000    ,  0.2430E-05
 2014,  1,  1, 16,   1.688,   0.000    ,  0.1370E-04,   0.000    ,  0.1200E-04,  0.1070E-04,  0.1070E-04,   0.000    ,  0.8740E-05,   0.000    ,  0.5060E-05,   0.000    ,  0.5340E-05,   0.000    ,  0.2460E-05
 2014,  1,  1, 18,   1.771,  0.2730E-04,  0.1930E-04,  0.1200E-04,  0.1200E-04,   0.000    ,  0.1060E-04,   0.000    ,  0.8690E-05,   0.000    ,  0.5030E-05,   0.000    ,  0.5310E-05,   0.000    ,  0.2450E-05
 2014,  1,  1, 19,   1.812,   0.000    ,  0.1360E-04,   0.000    ,  0.1190E-04,  0.1060E-04,  0.1060E-04,   0.000    ,  0.8660E-05,   0.000    ,  0.5010E-05,   0.000    ,  0.5290E-05,   0.000    ,  0.2440E-05
 2014,  1,  1, 20,   1.854,  0.1360E-04,  0.1360E-04,   0.000    ,  0.1190E-04,   0.000    ,  0.1060E-04,   0.000    ,  0.8640E-05,   0.000    ,  0.5000E-05,   0.000    ,  0.5280E-05,   0.000    ,  0.2440E-05
 2014,  1,  1, 21,   1.896,  0.1310E-04,  0.1310E-04,   0.000    ,  0.1140E-04,   0.000    ,  0.1020E-04,   0.000    ,  0.8310E-05,  0.4810E-05,  0.4810E-05,   0.000    ,  0.5080E-05,   0.000    ,  0.2340E-05
 2014,  1,  1, 22,   1.938,   0.000    ,  0.1340E-04,   0.000    ,  0.1170E-04,  0.1040E-04,  0.1040E-04,  0.8540E-05,  0.8540E-05,   0.000    ,  0.4940E-05,   0.000    ,  0.5220E-05,   0.000    ,  0.2410E-05
 2014,  1,  1, 23,   1.979,  0.1330E-04,  0.1330E-04,  0.2330E-04,  0.1640E-04,   0.000    ,  0.1030E-04,   0.000    ,  0.8460E-05,   0.000    ,  0.4900E-05,   0.000    ,  0.5170E-05,   0.000    ,  0.2390E-05
 2014,  1,  2,  0,   2.021,  0.1340E-04,  0.1340E-04,   0.000    ,  0.1170E-04,   0.000    ,  0.1040E-04,   0.000    ,  0.8500E-05,   0.000    ,  0.4920E-05,   0.000    ,  0.5200E-05,   0.000    ,  0.2400E-05
 2014,  1,  2,  1,   2.062,  0.1380E-04,  0.1380E-04,   0.000    ,  0.1210E-04,   0.000    ,  0.1080E-04,   0.000    ,  0.8810E-05,   0.000    ,  0.5100E-05,   0.000    ,  0.5380E-05,   0.000    ,  0.2480E-05
 2014,  1,  2,  2,   2.104,   0.000    ,  0.1350E-04,  0.1180E-04,  0.1180E-04,   0.000    ,  0.1050E-04,   0.000    ,  0.8560E-05,   0.000    ,  0.4960E-05,   0.000    ,  0.5230E-05,   0.000    ,  0.2420E-05
 2014,  1,  2,  3,   2.146,   0.000    ,  0.1310E-04,  0.1150E-04,  0.1150E-04,   0.000    ,  0.1020E-04,   0.000    ,  0.8360E-05,   0.000    ,  0.4840E-05,   0.000    ,  0.5110E-05,   0.000    ,  0.2360E-05
 2014,  1,  2,  5,   2.229,   0.000    ,  0.1340E-04,   0.000    ,  0.1180E-04,   0.000    ,  0.1050E-04,   0.000    ,  0.8550E-05,  0.4950E-05,  0.4950E-05,   0.000    ,  0.5230E-05,   0.000    ,  0.2410E-05
 2014,  1,  2,  7,   2.312,  0.4040E-04,  0.2330E-04,  0.2360E-04,  0.1670E-04,   0.000    ,  0.1050E-04,   0.000    ,  0.8580E-05,   0.000    ,  0.4970E-05,   0.000    ,  0.5240E-05,   0.000    ,  0.2420E-05
 2014,  1,  2,  8,   2.354,  0.5260E-04,  0.2630E-04,  0.2300E-04,  0.1630E-04,  0.1020E-04,  0.1020E-04,   0.000    ,  0.8370E-05,  0.4850E-05,  0.4850E-05,  0.5120E-05,  0.5120E-05,   0.000    ,  0.2360E-05
 2014,  1,  2,  9,   2.396,  0.4160E-04,  0.2400E-04,  0.2420E-04,  0.1710E-04,  0.1080E-04,  0.1080E-04,  0.1760E-04,  0.1250E-04,  0.1020E-04,  0.7220E-05,  0.5390E-05,  0.5390E-05,   0.000    ,  0.2490E-05
 2014,  1,  2, 10,   2.438,  0.1570E-04,  0.1570E-04,  0.1370E-04,  0.1370E-04,   0.000    ,  0.1220E-04,   0.000    ,  0.9960E-05,   0.000    ,  0.5770E-05,   0.000    ,  0.6090E-05,   0.000    ,  0.2810E-05
 2014,  1,  2, 11,   2.479,  0.9060E-04,  0.3700E-04,   0.000    ,  0.1320E-04,  0.1170E-04,  0.1170E-04,   0.000    ,  0.9610E-05,  0.5560E-05,  0.5560E-05,   0.000    ,  0.5870E-05,   0.000    ,  0.2710E-05
 2014,  1,  2, 12,   2.521,  0.2870E-04,  0.2030E-04,  0.2510E-04,  0.1770E-04,   0.000    ,  0.1120E-04,   0.000    ,  0.9130E-05,   0.000    ,  0.5280E-05,   0.000    ,  0.5580E-05,   0.000    ,  0.2570E-05
 2014,  1,  2, 13,   2.562,  0.1460E-04,  0.1460E-04,  0.3830E-04,  0.2210E-04,   0.000    ,  0.1130E-04,   0.000    ,  0.9280E-05,   0.000    ,  0.5370E-05,   0.000    ,  0.5670E-05,   0.000    ,  0.2620E-05
 2014,  1,  2, 14,   2.604,   0.000    ,  0.1500E-04,  0.1310E-04,  0.1310E-04,   0.000    ,  0.1170E-04,   0.000    ,  0.9560E-05,   0.000    ,  0.5540E-05,   0.000    ,  0.5840E-05,   0.000    ,  0.2700E-05
 2014,  1,  2, 15,   2.646,  0.1340E-04,  0.1340E-04,   0.000    ,  0.1180E-04,   0.000    ,  0.1050E-04,   0.000    ,  0.8560E-05,   0.000    ,  0.4950E-05,   0.000    ,  0.5230E-05,   0.000    ,  0.2410E-05
 2014,  1,  2, 16,   2.688,  0.1340E-04,  0.1340E-04,  0.1170E-04,  0.1170E-04,  0.1040E-04,  0.1040E-04,   0.000    ,  0.8520E-05,   0.000    ,  0.4930E-05,   0.000    ,  0.5210E-05,   0.000    ,  0.2400E-05
 2014,  1,  2, 17,   2.729,  0.1310E-04,  0.1310E-04,   0.000    ,  0.1150E-04,   0.000    ,  0.1020E-04,   0.000    ,  0.8350E-05,   0.000    ,  0.4840E-05,  0.5100E-05,  0.5100E-05,   0.000    ,  0.2360E-05
 2014,  1,  2, 18,   2.771,  0.2710E-04,  0.1920E-04,  0.1190E-04,  0.1190E-04,   0.000    ,  0.1060E-04,   0.000    ,  0.8640E-05,   0.000    ,  0.5000E-05,   0.000    ,  0.5280E-05,   0.000    ,  0.2440E-05
 2014,  1,  2, 19,   2.812,  0.1310E-04,  0.1310E-04,  0.2300E-04,  0.1630E-04,   0.000    ,  0.1020E-04,   0.000    ,  0.8370E-05,   0.000    ,  0.4840E-05,   0.000    ,  0.5110E-05,   0.000    ,  0.2360E-05
 2014,  1,  2, 20,   2.854,  0.1310E-04,  0.1310E-04,   0.000    ,  0.1140E-04,   0.000    ,  0.1020E-04,   0.000    ,  0.8320E-05,   0.000    ,  0.4820E-05,  0.5090E-05,  0.5090E-05,   0.000    ,  0.2350E-05
 2014,  1,  2, 22,   2.938,   0.000    ,  0.1310E-04,  0.1150E-04,  0.1150E-04,   0.000    ,  0.1020E-04,   0.000    ,  0.8350E-05,   0.000    ,  0.4830E-05,   0.000    ,  0.5100E-05,   0.000    ,  0.2350E-05
 2014,  1,  2, 23,   2.979,  0.1280E-04,  0.1280E-04,  0.1120E-04,  0.1120E-04,   0.000    ,  0.9940E-05,   0.000    ,  0.8130E-05,   0.000    ,  0.4710E-05,   0.000    ,  0.4970E-05,   0.000    ,  0.2290E-05
 2014,  1,  3,  0,   3.021,  0.1280E-04,  0.1280E-04,  0.1120E-04,  0.1120E-04,   0.000    ,  0.9950E-05,   0.000    ,  0.8140E-05,   0.000    ,  0.4720E-05,   0.000    ,  0.4980E-05,   0.000    ,  0.2300E-05
 2014,  1,  3,  1,   3.062,  0.1320E-04,  0.1320E-04,   0.000    ,  0.1150E-04,   0.000    ,  0.1020E-04,   0.000    ,  0.8380E-05,   0.000    ,  0.4850E-05,   0.000    ,  0.5120E-05,   0.000    ,  0.2360E-05
 2014,  1,  3,  3,   3.146,   0.000    ,  0.1320E-04,  0.1150E-04,  0.1150E-04,   0.000    ,  0.1020E-04,   0.000    ,  0.8370E-05,   0.000    ,  0.4850E-05,   0.000    ,  0.5120E-05,   0.000    ,  0.2360E-05
 2014,  1,  3,  6,   3.271,  0.1400E-04,  0.1400E-04,   0.000    ,  0.1230E-04,   0.000    ,  0.1090E-04,   0.000    ,  0.8910E-05,   0.000    ,  0.5160E-05,   0.000    ,  0.5450E-05,   0.000    ,  0.2510E-05
 2014,  1,  3,  8,   3.354,   0.000    ,  0.1410E-04,  0.1230E-04,  0.1230E-04,   0.000    ,  0.1090E-04,   0.000    ,  0.8950E-05,   0.000    ,  0.5180E-05,   0.000    ,  0.5470E-05,   0.000    ,  0.2520E-05
 2014,  1,  3, 10,   3.438,   0.000    ,  0.1380E-04,   0.000    ,  0.1200E-04,  0.1070E-04,  0.1070E-04,   0.000    ,  0.8750E-05,   0.000    ,  0.5070E-05,   0.000    ,  0.5350E-05,   0.000    ,  0.2470E-05
 2014,  1,  3, 12,   3.521,   0.000    ,  0.1340E-04,  0.1180E-04,  0.1180E-04,   0.000    ,  0.1040E-04,   0.000    ,  0.8550E-05,   0.000    ,  0.4950E-05,   0.000    ,  0.5220E-05,   0.000    ,  0.2410E-05
 2014,  1,  3, 19,   3.812,  0.1350E-04,  0.1350E-04,   0.000    ,  0.1180E-04,   0.000    ,  0.1050E-04,   0.000    ,  0.8570E-05,   0.000    ,  0.4960E-05,   0.000    ,  0.5240E-05,   0.000    ,  0.2420E-05
 2014,  1,  4,  3,   4.146,  0.1380E-04,  0.1380E-04,   0.000    ,  0.1210E-04,   0.000    ,  0.1070E-04,   0.000    ,  0.8770E-05,   0.000    ,  0.5080E-05,   0.000    ,  0.5360E-05,   0.000    ,  0.2470E-05
 2014,  1,  4,  6,   4.271,  0.1260E-04,  0.1260E-04,   0.000    ,  0.1100E-04,   0.000    ,  0.9810E-05,   0.000    ,  0.8030E-05,   0.000    ,  0.4650E-05,   0.000    ,  0.4910E-05,   0.000    ,  0.2260E-05
 2014,  1,  4, 11,   4.479,  0.1210E-04,  0.1210E-04,   0.000    ,  0.1060E-04,   0.000    ,  0.9450E-05,   0.000    ,  0.7730E-05,   0.000    ,  0.4480E-05,   0.000    ,  0.4720E-05,   0.000    ,  0.2180E-05
 2014,  1,  4, 13,   4.562,  0.1240E-04,  0.1240E-04,   0.000    ,  0.1080E-04,   0.000    ,  0.9610E-05,   0.000    ,  0.7860E-05,   0.000    ,  0.4550E-05,   0.000    ,  0.4810E-05,   0.000    ,  0.2220E-05
 2014,  1,  4, 14,   4.604,  0.1200E-04,  0.1200E-04,   0.000    ,  0.1050E-04,   0.000    ,  0.9300E-05,   0.000    ,  0.7610E-05,   0.000    ,  0.4400E-05,   0.000    ,  0.4650E-05,   0.000    ,  0.2150E-05
 2014,  1,  5,  0,   5.021,   0.000    ,  0.1300E-04,  0.1130E-04,  0.1130E-04,   0.000    ,  0.1010E-04,   0.000    ,  0.8250E-05,  0.4780E-05,  0.4780E-05,   0.000    ,  0.5040E-05,   0.000    ,  0.2330E-05
 2014,  1,  5,  1,   5.062,   0.000    ,  0.1310E-04,   0.000    ,  0.1140E-04,   0.000    ,  0.1020E-04,   0.000    ,  0.8310E-05,   0.000    ,  0.4810E-05,  0.5080E-05,  0.5080E-05,  0.2340E-05,  0.2340E-05
 2014,  1,  5,  2,   5.104,   0.000    ,  0.1360E-04,  0.2370E-04,  0.1680E-04,  0.1050E-04,  0.1050E-04,   0.000    ,  0.8630E-05,   0.000    ,  0.5000E-05,   0.000    ,  0.5270E-05,   0.000    ,  0.2430E-05
 2014,  1,  5,  3,   5.146,  0.1440E-04,  0.1440E-04,  0.1260E-04,  0.1260E-04,   0.000    ,  0.1120E-04,   0.000    ,  0.9190E-05,  0.5320E-05,  0.5320E-05,   0.000    ,  0.5620E-05,   0.000    ,  0.2590E-05
 2014,  1,  5,  4,   5.188,   0.000    ,  0.1340E-04,  0.1180E-04,  0.1180E-04,   0.000    ,  0.1050E-04,  0.8560E-05,  0.8560E-05,   0.000    ,  0.4950E-05,   0.000    ,  0.5230E-05,   0.000    ,  0.2410E-05
 2014,  1,  5,  5,   5.229,  0.2850E-04,  0.2010E-04,  0.1250E-04,  0.1250E-04,  0.1110E-04,  0.1110E-04,   0.000    ,  0.9060E-05,  0.5250E-05,  0.5250E-05,   0.000    ,  0.5540E-05,  0.2560E-05,  0.2560E-05
 2014,  1,  5,  6,   5.271,  0.1470E-04,  0.1470E-04,  0.3860E-04,  0.2230E-04,   0.000    ,  0.1140E-04,   0.000    ,  0.9350E-05,   0.000    ,  0.5410E-05,   0.000    ,  0.5710E-05,   0.000    ,  0.2640E-05
 2014,  1,  5,  7,   5.312,  0.4490E-04,  0.2590E-04,  0.2620E-04,  0.1850E-04,  0.1160E-04,  0.1160E-04,   0.000    ,  0.9520E-05,   0.000    ,  0.5510E-05,   0.000    ,  0.5820E-05,   0.000    ,  0.2690E-05
 2014,  1,  5,  8,   5.354,   0.000    ,  0.1500E-04,   0.000    ,  0.1310E-04,  0.1160E-04,  0.1160E-04,   0.000    ,  0.9530E-05,   0.000    ,  0.5520E-05,   0.000    ,  0.5820E-05,   0.000    ,  0.2690E-05
 2014,  1,  5,  9,   5.396,  0.3020E-04,  0.2130E-04,  0.3960E-04,  0.2290E-04,   0.000    ,  0.1170E-04,  0.9600E-05,  0.9600E-05,   0.000    ,  0.5560E-05,   0.000    ,  0.5860E-05,   0.000    ,  0.2710E-05
 2014,  1,  5, 10,   5.438,  0.3300E-04,  0.2330E-04,  0.1440E-04,  0.1440E-04,  0.1280E-04,  0.1280E-04,   0.000    ,  0.1050E-04,   0.000    ,  0.6070E-05,   0.000    ,  0.6410E-05,   0.000    ,  0.2960E-05
 2014,  1,  5, 11,   5.479,  0.3600E-04,  0.2540E-04,  0.4720E-04,  0.2730E-04,  0.1400E-04,  0.1400E-04,  0.1140E-04,  0.1140E-04,   0.000    ,  0.6630E-05,   0.000    ,  0.7000E-05,   0.000    ,  0.3230E-05
 2014,  1,  5, 12,   5.521,  0.7260E-04,  0.3630E-04,   0.000    ,  0.1590E-04,  0.4240E-04,  0.2450E-04,   0.000    ,  0.1160E-04,   0.000    ,  0.6690E-05,   0.000    ,  0.7060E-05,   0.000    ,  0.3260E-05
 2014,  1,  5, 13,   5.562,  0.3990E-04,  0.2820E-04,  0.3490E-04,  0.2470E-04,  0.1550E-04,  0.1550E-04,   0.000    ,  0.1270E-04,  0.1470E-04,  0.1040E-04,   0.000    ,  0.7760E-05,   0.000    ,  0.3580E-05
 2014,  1,  5, 14,   5.604,  0.1140E-03,  0.4670E-04,  0.3340E-04,  0.2360E-04,  0.2970E-04,  0.2100E-04,   0.000    ,  0.1210E-04,   0.000    ,  0.7030E-05,   0.000    ,  0.7420E-05,  0.3420E-05,  0.3420E-05
 2014,  1,  5, 15,   5.646,   0.000    ,  0.2100E-04,  0.1830E-04,  0.1830E-04,   0.000    ,  0.1630E-04,  0.1330E-04,  0.1330E-04,   0.000    ,  0.7720E-05,   0.000    ,  0.8150E-05,   0.000    ,  0.3760E-05
 2014,  1,  5, 16,   5.688,  0.5950E-04,  0.3440E-04,  0.6940E-04,  0.3470E-04,  0.1540E-04,  0.1540E-04,   0.000    ,  0.1260E-04,  0.7310E-05,  0.7310E-05,   0.000    ,  0.7710E-05,   0.000    ,  0.3560E-05
 2014,  1,  5, 17,   5.729,  0.7950E-04,  0.3980E-04,  0.6960E-04,  0.3480E-04,  0.3090E-04,  0.2190E-04,   0.000    ,  0.1260E-04,  0.7320E-05,  0.7320E-05,   0.000    ,  0.7730E-05,   0.000    ,  0.3570E-05
 2014,  1,  5, 18,   5.771,  0.2050E-04,  0.2050E-04,  0.1790E-04,  0.1790E-04,  0.1600E-04,  0.1600E-04,   0.000    ,  0.1310E-04,   0.000    ,  0.7560E-05,   0.000    ,  0.7980E-05,   0.000    ,  0.3680E-05
 2014,  1,  5, 19,   5.812,  0.6310E-04,  0.3640E-04,   0.000    ,  0.1840E-04,   0.000    ,  0.1640E-04,   0.000    ,  0.1340E-04,   0.000    ,  0.7750E-05,   0.000    ,  0.8180E-05,   0.000    ,  0.3780E-05
 2014,  1,  5, 20,   5.854,   0.000    ,  0.2190E-04,  0.1910E-04,  0.1910E-04,  0.1700E-04,  0.1700E-04,   0.000    ,  0.1390E-04,  0.8060E-05,  0.8060E-05,   0.000    ,  0.8510E-05,   0.000    ,  0.3930E-05
 2014,  1,  5, 21,   5.896,  0.4370E-04,  0.3090E-04,  0.1910E-04,  0.1910E-04,  0.1700E-04,  0.1700E-04,  0.1390E-04,  0.1390E-04,   0.000    ,  0.8040E-05,   0.000    ,  0.8490E-05,   0.000    ,  0.3920E-05
 2014,  1,  5, 22,   5.938,  0.2160E-04,  0.2160E-04,   0.000    ,  0.1890E-04,  0.1680E-04,  0.1680E-04,   0.000    ,  0.1370E-04,   0.000    ,  0.7950E-05,   0.000    ,  0.8390E-05,   0.000    ,  0.3870E-05
 2014,  1,  5, 23,   5.979,  0.4410E-04,  0.3120E-04,  0.3860E-04,  0.2730E-04,   0.000    ,  0.1720E-04,   0.000    ,  0.1400E-04,   0.000    ,  0.8130E-05,   0.000    ,  0.8580E-05,   0.000    ,  0.3960E-05
 2014,  1,  6,  0,   6.021,  0.1070E-03,  0.4790E-04,  0.3750E-04,  0.2650E-04,  0.3330E-04,  0.2360E-04,   0.000    ,  0.1360E-04,   0.000    ,  0.7890E-05,   0.000    ,  0.8330E-05,   0.000    ,  0.3840E-05
 2014,  1,  6,  1,   6.062,   0.000    ,  0.2030E-04,   0.000    ,  0.1780E-04,   0.000    ,  0.1580E-04,  0.1290E-04,  0.1290E-04,   0.000    ,  0.7490E-05,   0.000    ,  0.7910E-05,   0.000    ,  0.3650E-05
 2014,  1,  6,  2,   6.104,  0.4300E-04,  0.3040E-04,  0.3760E-04,  0.2660E-04,  0.3350E-04,  0.2370E-04,   0.000    ,  0.1370E-04,   0.000    ,  0.7920E-05,   0.000    ,  0.8360E-05,   0.000    ,  0.3860E-05
 2014,  1,  6,  3,   6.146,  0.4410E-04,  0.3120E-04,  0.1930E-04,  0.1930E-04,  0.1710E-04,  0.1710E-04,   0.000    ,  0.1400E-04,   0.000    ,  0.8120E-05,   0.000    ,  0.8570E-05,   0.000    ,  0.3950E-05
 2014,  1,  6,  4,   6.188,   0.000    ,  0.2100E-04,  0.1840E-04,  0.1840E-04,  0.1630E-04,  0.1630E-04,   0.000    ,  0.1340E-04,   0.000    ,  0.7740E-05,   0.000    ,  0.8170E-05,   0.000    ,  0.3770E-05
 2014,  1,  6,  5,   6.229,  0.4250E-04,  0.3010E-04,  0.1860E-04,  0.1860E-04,   0.000    ,  0.1650E-04,   0.000    ,  0.1350E-04,   0.000    ,  0.7840E-05,   0.000    ,  0.8270E-05,   0.000    ,  0.3820E-05
 2014,  1,  6,  6,   6.271,   0.000    ,  0.2210E-04,   0.000    ,  0.1940E-04,  0.1720E-04,  0.1720E-04,   0.000    ,  0.1410E-04,   0.000    ,  0.8150E-05,   0.000    ,  0.8600E-05,   0.000    ,  0.3970E-05
 2014,  1,  6,  8,   6.354,  0.2080E-04,  0.2080E-04,   0.000    ,  0.1820E-04,   0.000    ,  0.1620E-04,   0.000    ,  0.1330E-04,   0.000    ,  0.7680E-05,   0.000    ,  0.8110E-05,   0.000    ,  0.3740E-05
 2014,  1,  6,  9,   6.396,   0.000    ,  0.2110E-04,  0.1840E-04,  0.1840E-04,   0.000    ,  0.1640E-04,   0.000    ,  0.1340E-04,   0.000    ,  0.7760E-05,   0.000    ,  0.8200E-05,   0.000    ,  0.3780E-05
 2014,  1,  6, 10,   6.438,   0.000    ,  0.2010E-04,   0.000    ,  0.1760E-04,   0.000    ,  0.1570E-04,  0.1280E-04,  0.1280E-04,   0.000    ,  0.7420E-05,  0.7830E-05,  0.7830E-05,  0.7230E-05,  0.5110E-05
 2014,  1,  6, 11,   6.479,  0.2060E-04,  0.2060E-04,  0.3610E-04,  0.2550E-04,  0.1600E-04,  0.1600E-04,  0.3930E-04,  0.2270E-04,   0.000    ,  0.7590E-05,  0.3200E-04,  0.1600E-04,  0.7400E-05,  0.5230E-05
 2014,  1,  6, 12,   6.521,  0.1620E-03,  0.6130E-04,  0.8110E-04,  0.4060E-04,  0.1080E-03,  0.4420E-04,  0.7380E-04,  0.3300E-04,  0.4270E-04,  0.1910E-04,  0.9020E-05,  0.9020E-05,  0.8320E-05,  0.5890E-05
 2014,  1,  6, 13,   6.562,  0.2260E-03,  0.6810E-04,  0.1260E-03,  0.4750E-04,  0.7980E-04,  0.3570E-04,  0.1040E-03,  0.3690E-04,  0.8320E-04,  0.2510E-04,  0.2390E-04,  0.1380E-04,  0.1840E-04,  0.8240E-05
 2014,  1,  6, 14,   6.604,  0.3850E-03,  0.9080E-04,  0.3000E-03,  0.7490E-04,  0.1330E-03,  0.4710E-04,  0.8170E-04,  0.3340E-04,  0.1500E-03,  0.3440E-04,  0.5830E-04,  0.2200E-04,  0.4230E-04,  0.1270E-04
 2014,  1,  6, 15,   6.646,  0.4870E-03,  0.1040E-03,  0.2520E-03,  0.6990E-04,  0.1550E-03,  0.5170E-04,  0.9870E-04,  0.3730E-04,  0.7350E-04,  0.2450E-04,  0.6890E-04,  0.2440E-04,  0.1990E-04,  0.8890E-05
 2014,  1,  6, 16,   6.688,  0.5010E-03,  0.1180E-03,  0.5120E-03,  0.1120E-03,  0.2170E-03,  0.6850E-04,  0.8860E-04,  0.3960E-04,  0.9240E-04,  0.3080E-04,  0.3250E-04,  0.1880E-04,  0.2000E-04,  0.1000E-04
 2014,  1,  6, 17,   6.729,  0.5620E-03,  0.1170E-03,  0.2990E-03,  0.8000E-04,  0.2660E-03,  0.7110E-04,  0.1560E-03,  0.4920E-04,  0.8110E-04,  0.2700E-04,  0.3800E-04,  0.1900E-04,  0.8770E-05,  0.6200E-05
 2014,  1,  6, 18,   6.771,  0.5800E-03,  0.1270E-03,  0.3870E-03,  0.9670E-04,  0.6450E-04,  0.3720E-04,  0.7040E-04,  0.3520E-04,  0.1020E-03,  0.3220E-04,  0.1070E-04,  0.1070E-04,  0.3970E-04,  0.1400E-04
 2014,  1,  6, 19,   6.812,  0.7040E-03,  0.1410E-03,  0.3200E-03,  0.8880E-04,  0.2630E-03,  0.7580E-04,  0.7160E-04,  0.3580E-04,  0.8300E-04,  0.2930E-04,  0.3280E-04,  0.1900E-04,  0.2530E-04,  0.1130E-04
 2014,  1,  6, 20,   6.854,  0.6650E-03,  0.1300E-03,  0.3130E-03,  0.8370E-04,  0.1190E-03,  0.4870E-04,  0.3250E-04,  0.2300E-04,  0.7540E-04,  0.2660E-04,  0.4970E-04,  0.2220E-04,  0.1380E-04,  0.7950E-05
 2014,  1,  6, 21,   6.896,  0.5970E-03,  0.1190E-03,  0.2920E-03,  0.7810E-04,  0.1670E-03,  0.5570E-04,  0.1370E-03,  0.4560E-04,  0.2640E-04,  0.1520E-04,  0.2780E-04,  0.1610E-04,  0.1290E-04,  0.7420E-05
 2014,  1,  6, 22,   6.938,  0.6700E-03,  0.1270E-03,  0.2930E-03,  0.7830E-04,  0.1300E-03,  0.4920E-04,  0.9140E-04,  0.3730E-04,  0.2640E-04,  0.1530E-04,  0.5580E-04,  0.2280E-04,  0.1720E-04,  0.8590E-05
 2014,  1,  6, 23,   6.979,  0.3760E-03,  0.9390E-04,  0.3080E-03,  0.7960E-04,  0.1640E-03,  0.5480E-04,  0.4480E-04,  0.2590E-04,  0.8650E-04,  0.2740E-04,  0.1830E-04,  0.1290E-04,  0.2110E-04,  0.9420E-05
 2014,  1,  7,  0,   7.021,  0.5630E-03,  0.1150E-03,  0.2460E-03,  0.7110E-04,  0.2370E-03,  0.6580E-04,  0.2090E-03,  0.5590E-04,  0.8640E-04,  0.2730E-04,  0.6390E-04,  0.2410E-04,  0.2950E-04,  0.1110E-04
 2014,  1,  7,  1,   7.062,  0.5590E-03,  0.1170E-03,  0.5100E-03,  0.1040E-03,  0.1700E-03,  0.5670E-04,  0.9280E-04,  0.3790E-04,  0.1160E-03,  0.3230E-04,  0.6610E-04,  0.2500E-04,  0.3490E-04,  0.1230E-04
 2014,  1,  7,  2,   7.104,  0.4040E-03,  0.1010E-03,  0.2650E-03,  0.7640E-04,  0.1770E-03,  0.5880E-04,  0.1120E-03,  0.4250E-04,  0.7430E-04,  0.2630E-04,  0.7850E-04,  0.2770E-04,  0.2260E-04,  0.1010E-04
 2014,  1,  7,  3,   7.146,  0.6880E-03,  0.1300E-03,  0.3010E-03,  0.8050E-04,  0.1340E-03,  0.5060E-04,  0.9390E-04,  0.3830E-04,  0.9960E-04,  0.3000E-04,  0.2870E-04,  0.1660E-04,  0.1770E-04,  0.8830E-05
 2014,  1,  7,  4,   7.188,  0.5640E-03,  0.1200E-03,  0.4040E-03,  0.9520E-04,  0.1990E-03,  0.6310E-04,  0.3260E-04,  0.2310E-04,  0.5670E-04,  0.2310E-04,  0.3990E-04,  0.1990E-04,  0.1840E-04,  0.9200E-05
 2014,  1,  7,  5,   7.229,  0.7800E-03,  0.1380E-03,  0.2770E-03,  0.7690E-04,  0.1710E-03,  0.5690E-04,  0.7750E-04,  0.3470E-04,  0.5390E-04,  0.2200E-04,  0.2840E-04,  0.1640E-04,  0.4370E-05,  0.4370E-05
 2014,  1,  7,  6,   7.271,  0.7610E-03,  0.1390E-03,  0.4220E-03,  0.9680E-04,  0.7900E-04,  0.3950E-04,  0.6460E-04,  0.3230E-04,  0.3740E-04,  0.1870E-04,  0.9870E-05,  0.9870E-05,  0.1370E-04,  0.7890E-05
 2014,  1,  7,  7,   7.312,  0.6100E-03,  0.1220E-03,  0.3200E-03,  0.8270E-04,  0.1710E-03,  0.5690E-04,  0.9310E-04,  0.3800E-04,  0.8990E-04,  0.2840E-04,  0.2850E-04,  0.1640E-04,  0.8760E-05,  0.6190E-05
 2014,  1,  7,  8,   7.354,  0.4910E-03,  0.1130E-03,  0.2040E-03,  0.6790E-04,  0.1410E-03,  0.5320E-04,  0.1320E-03,  0.4650E-04,  0.2860E-04,  0.1650E-04,  0.4020E-04,  0.2010E-04,  0.4640E-05,  0.4640E-05
 2014,  1,  7,  9,   7.396,  0.6240E-03,  0.1250E-03,  0.2400E-03,  0.7240E-04,  0.1360E-03,  0.5140E-04,  0.4760E-04,  0.2750E-04,  0.1200E-03,  0.3320E-04,  0.9710E-05,  0.9710E-05,  0.8960E-05,  0.6340E-05
 2014,  1,  7, 10,   7.438,  0.4140E-03,  0.1040E-03,  0.1360E-03,  0.5550E-04,  0.1010E-03,  0.4500E-04,  0.4940E-04,  0.2850E-04,  0.5730E-04,  0.2340E-04,  0.5040E-04,  0.2250E-04,  0.9300E-05,  0.6570E-05
 2014,  1,  7, 11,   7.479,  0.4200E-03,  0.1020E-03,  0.1300E-03,  0.5300E-04,  0.1150E-03,  0.4710E-04,  0.3150E-04,  0.2230E-04,  0.4560E-04,  0.2040E-04,   0.000    ,  0.9620E-05,  0.8880E-05,  0.6280E-05
 2014,  1,  7, 12,   7.521,  0.5340E-03,  0.1170E-03,  0.3340E-03,  0.8620E-04,  0.5940E-04,  0.3430E-04,  0.8100E-04,  0.3620E-04,  0.2810E-04,  0.1620E-04,  0.1980E-04,  0.1400E-04,   0.000    ,  0.4570E-05
 2014,  1,  7, 13,   7.562,  0.4750E-03,  0.1120E-03,  0.2080E-03,  0.6930E-04,  0.1640E-03,  0.5810E-04,  0.8400E-04,  0.3760E-04,  0.4860E-04,  0.2170E-04,  0.1030E-04,  0.1030E-04,  0.1420E-04,  0.8210E-05
 2014,  1,  7, 14,   7.604,  0.3840E-03,  0.9910E-04,  0.2460E-03,  0.7430E-04,  0.1590E-03,  0.5630E-04,  0.1470E-03,  0.4890E-04,  0.3770E-04,  0.1890E-04,  0.1990E-04,  0.1410E-04,  0.9190E-05,  0.6500E-05